Location: Indian Hills
(32.9760°N, 85.9450°W)
Time: 09:19:58
(UTC+00:00)

Cosmos 2026 Rocket - Pass Details

Date: 09 December 2019
Orbit: 940 x 1000 km, 82.9° (Epoch: 20 January)

Event Time Altitude Azimuth Distance (km) Brightness Sun altitude
Rises 00:00:10 0° 185° (S) 3,606 7.3 -17.0°
Reaches altitude 10° 00:02:39 10° 185° (S) 2,658 6.5 -17.5°
Maximum altitude 00:08:43 88° 271° (W) 947 3.9 -18.7°
Drops below altitude 10° 00:14:48 10° 5° (N) 2,660 6.1 -20.0°
Sets 00:17:17 0° 6° (N) 3,608 6.8 -20.5°
